This is the latest recevied weather packets stored in our database for station/object KE5YIM-13. If no packets are shown the sender has not sent any weather packets the latest 10 day(s).
| Time | Temp. | Humidity | Pressure | Rain* | Wind** | Luminosity | Snow |
|---|---|---|---|---|---|---|---|
| 1778024299 | 17.78° C | 67% | 1010.5 hPa | 0 mm | - | 10 W/m² | - |
| 1778023997 | 18.33° C | 67% | 1010.4 hPa | 0 mm | - | 13 W/m² | - |
| 1778023694 | 18.33° C | 66% | 1010.5 hPa | 0 mm | - | 17 W/m² | - |
| 1778023392 | 18.33° C | 66% | 1010.5 hPa | 0 mm | - | 21 W/m² | - |
| 1778023088 | 18.33° C | 66% | 1010.3 hPa | 0 mm | - | 25 W/m² | - |
| 1778022787 | 18.89° C | 66% | 1010.1 hPa | 0 mm | - | 31 W/m² | - |
| 1778022484 | 18.89° C | 66% | 1010.1 hPa | 0 mm | - | 35 W/m² | - |
| 1778022181 | 18.89° C | 65% | 1010.1 hPa | 0 mm | - | 38 W/m² | - |
| 1778021877 | 19.44° C | 65% | 1010.1 hPa | 0 mm | - | 44 W/m² | - |
| 1778021575 | 19.44° C | 65% | 1009.9 hPa | 0 mm | - | 48 W/m² | - |
| 1778021269 | 19.44° C | 64% | 1009.8 hPa | 0 mm | - | 51 W/m² | - |
| 1778020968 | 20° C | 64% | 1010 hPa | 0 mm | - | 61 W/m² | - |
| 1778020665 | 20° C | 63% | 1010.1 hPa | 0 mm | - | 72 W/m² | - |
| 1778020361 | 20° C | 63% | 1010.2 hPa | 0 mm | - | 73 W/m² | - |
| 1778020057 | 20° C | 63% | 1010.1 hPa | 0 mm | - | 112 W/m² | - |
| 1778019753 | 20° C | 63% | 1010.2 hPa | 0 mm | - | 130 W/m² | - |
| 1778019451 | 20° C | 64% | 1010 hPa | 0 mm | - | 140 W/m² | - |
| 1778019147 | 20° C | 63% | 1010.1 hPa | 0 mm | - | 149 W/m² | - |
| 1778018844 | 20.56° C | 62% | 1010.1 hPa | 0 mm | - | 173 W/m² | - |
| 1778018542 | 20.56° C | 62% | 1009.9 hPa | 0 mm | - | 131 W/m² | - |
| 1778018240 | 20.56° C | 63% | 1010 hPa | 0 mm | - | 195 W/m² | - |
| 1778017937 | 20.56° C | 63% | 1009.8 hPa | 0 mm | - | 196 W/m² | - |
| 1778017635 | 20.56° C | 63% | 1009.8 hPa | 0 mm | - | 224 W/m² | - |
| 1778017332 | 20.56° C | 63% | 1009.9 hPa | 0 mm | - | 235 W/m² | - |
| 1778017029 | 20° C | 64% | 1010 hPa | 0 mm | - | 207 W/m² | - |
* Rain latest hour (hover to see other rain measurements)
** Current wind speed in m/s (hover to see current wind gust speed)